Flag for Germany Weather past 2 weeks in Cuxhaven, Lower Saxony, Germany

Now
75 °F

Passing clouds.


Feels Like: 78 °F
Forecast: 63 / 82 °F
Wind: 8 mph from East

Location: Nordholz

Current Time: Jul 1, 2015 at 10:17:22 PM

Latest Report: Jul 1, 2015 at 9:20 PM


Visibility: N/A

Pressure: 30.12 "Hg

Humidity: 47%

Dew point: 54 °F

Location of CuxhavenLocation

Historic Weather in Cuxhaven — Graph

°F

Cuxhaven temperature yesterday

Maximum temperature yesterday: 68 °F (at 2:20 PM)
Minimum temperature yesterday: 54 °F (at 2:20 AM)
Average temperature yesterday: 62 °F

Past Weeks' High & Low Weather Summary

 TemperatureHumidityPressure
High81 °F (Jul 1, 3:20 PM)100% (Jun 17, 11:54 PM)30.27 "Hg (Jun 17, 11:54 PM)
Low45 °F (Jun 21, 2:20 AM)42% (Jul 1, 3:20 PM)29.65 "Hg (Jun 22, 7:20 PM)
Average58 °F78%30.02 "Hg
* Reported Jun 16 8:20 PM — Jul 1 8:20 PM, Cuxhaven, Weather by CustomWeather, © 2015

Note: Actual official high and low records may vary slightly from our data, if they occured in-between our weather recording intervals... More about our weather records

Advertising

Cuxhaven weather history for previous 24 hours

 ConditionsComfort  
Time TempWeatherWind HumidityBarometerVisibility
8:20 PM
Wed, Jul 1
79 °FPassing clouds.10 mph42%30.12 "HgN/A
8:00 PM79 °FPassing clouds.10 mph45%30.12 "HgN/A
7:20 PM81 °FPassing clouds.10 mph42%30.12 "HgN/A
6:20 PM81 °FPassing clouds.14 mph42%30.12 "HgN/A
5:20 PM81 °FPassing clouds.14 mph42%30.12 "HgN/A
4:20 PM81 °FPassing clouds.12 mph45%30.15 "HgN/A
3:20 PM81 °FPassing clouds.14 mph42%30.15 "HgN/A
2:20 PM79 °FPassing clouds.10 mph45%30.15 "HgN/A
1:20 PM77 °FPassing clouds.12 mph47%30.18 "HgN/A
12:20 PM77 °FPassing clouds.12 mph51%30.18 "HgN/A
11:20 AM73 °FPassing clouds.13 mph53%30.21 "HgN/A
10:20 AM70 °FPassing clouds.9 mph57%30.21 "HgN/A
9:20 AM68 °FPassing clouds.8 mph60%30.21 "HgN/A
8:20 AM64 °FPassing clouds.9 mph68%30.21 "HgN/A
7:20 AM61 °FPassing clouds.7 mph72%30.21 "HgN/A
6:20 AM55 °FFog.5 mph88%30.21 "HgN/A
5:20 AM55 °FFog.6 mph88%30.21 "HgN/A
4:20 AM55 °FFog.7 mph88%30.21 "HgN/A
3:20 AM55 °FPassing clouds.6 mph88%30.21 "HgN/A
2:20 AM57 °FCool.7 mph88%30.21 "HgN/A
1:20 AM59 °FCool.7 mph82%30.21 "HgN/A
12:20 AM59 °FCool.6 mph82%30.21 "HgN/A
11:20 PM
Tue, Jun 30
59 °FCool.6 mph82%30.21 "HgN/A
10:20 PM61 °FCool.3 mph83%30.21 "HgN/A
Weather by CustomWeather, © 2015

See weather overviewHow to use our weather pages